{"data":{"norad_id":45047,"intl_designator":"2020-006D","name":"STARLINK-1131","alt_names":[],"object_type":"PAYLOAD","status":"ACTIVE","operator":null,"country":"US","launch_date":"2020-01-29","launch_site_code":"AFETR","launch_vehicle":null,"mission":null,"orbit_class":"UNKNOWN","rcs_meters":null,"size_class":null,"mass_kg":null,"dimensions":null,"purposes":["comms"],"wikipedia_slug":null,"has_3d_model":false,"image_url":null,"decayed_at":null,"tle_current":{"epoch":"2026-05-25T04:36:36.097344Z","epoch_age_seconds":55691,"freshness":"FRESH","line1":"1 45047U 20006D   26145.19208446  .00065656  00000+0  11340-2 0  9998","line2":"2 45047  53.1571 281.1074 0002762 318.0881  41.9916 15.50401499348321","mean_motion":15.50401499,"eccentricity":0.0002762,"inclination_deg":53.1571,"raan_deg":281.1074,"arg_perigee_deg":318.0881,"mean_anomaly_deg":41.9916,"bstar":0.001134,"rev_number":34832,"period_min":92.879167165976,"perigee_km":413.67651572652,"apogee_km":417.42935004544,"semimajor_km":6793.689932886,"source":"CELESTRAK","updated_at":"2026-05-25T13:38:16.377016Z"}}}